Regional Weather Roundup
Issued by NWS

Home | Current Version | Previous Version | Text Only | Print | Product List | Glossary Off
Versions: 1 2 3 4 5 6 7 8 9 10 11 12 13 14 15 16 17 18 19 20 21 22 23 24 25 26 27 28 29 30 31 32 33 34 35 36 37 38 39 40 41 42 43 44 45 46 47 48 49 50

592
ASUS44 KLIX 231101
RWRLA
LOUISIANA WEATHER ROUNDUP
NATIONAL WEATHER SERVICE NEW ORLEANS LA
600 AM CDT THU OCT 23 2014

NOTE: "FAIR" INDICATES FEW OR NO CLOUDS BELOW 12,000 FEET WITH NO
      SIGNIFICANT WEATHER AND/OR OBSTRUCTIONS TO VISIBILITY.
      SKY/WX - SKY CONDITION AND SIGNIFICANT WEATHER.
      TMP - AIR TEMPERATURE.    DP   - DEWPOINT TEMPERATURE.
      RH  - RELATIVE HUMIDITY.  PRES - PRESSURE.
      HX  - HEAT INDEX.         WCI  - WIND CHILL INDEX.

*  THESE STATIONS ARE NOT NWS OR FAA STATIONS AND ARE NOT UNDER
   NWS QUALITY CONTROL.

LAZ040-048-061>063-065-066-069-231200-
SOUTHEAST LOUISIANA

CITY           SKY/WX    TMP DP  RH WIND       PRES   REMARKS
N.O. AUDUBON     N/A     58  49  69 MISG        N/A
N.O. INTL ARPT CLEAR     63  50  62 E6        30.06R
N.O. LAKEFRONT LGT RAIN  63  50  62 E17       30.07R
N.O. DOWNTOWN* FAIR      61  45  55 NE6       30.07R
SLIDELL        CLEAR     48  44  86 CALM      30.07R
BATON ROUGE    CLEAR     51  46  83 CALM      30.09R
BOOTHVILLE     CLEAR     69  56  62 NE9       30.04R
BELLE CHASSE   CLEAR     58  50  75 NE7       30.06R
BOGALUSA*        N/A     46  42  89 CALM      30.10R
NEW ROADS*     FAIR      52  47  83 NE3       30.09F
GONZALES*      FAIR      53  50  90 N3        30.08R
HAMMOND*       NOT AVBL
HOUMA*         CLEAR     55  49  82 NE5       30.06R
PORT FOURCHON* SUNNY     68  61  77 NE12      30.07R

$$

LAZ041-044-053-054-231200-
SOUTHWEST LOUISIANA

CITY           SKY/WX    TMP DP  RH WIND       PRES   REMARKS
LAKE CHARLES   CLEAR     56  50  80 NE7       30.08S
LAFAYETTE      CLEAR     52  50  93 N5        30.08S
PATTERSON      CLEAR     55  52  88 CALM      30.09R
SALT POINT       N/A     58  55  90 VRB3      30.05R
NEW IBERIA     CLEAR     57  50  77 NE9       30.08S
CHENAULT AIRPK NOT AVBL

$$

LAZ027-028-231200-
CENTRAL LOUISIANA

CITY           SKY/WX    TMP DP  RH WIND       PRES   REMARKS
FORT POLK      MOCLDY    54  49  83 NE6       30.10S
ALEXANDRIA INT PTCLDY    49  47  93 CALM      30.11S
ALEXANDRIA     PTCLDY    46  45  96 NE3       30.12R

$$

LAZ001-002-231200-
NORTHWEST LOUISIANA

CITY           SKY/WX    TMP DP  RH WIND       PRES   REMARKS
SHREVEPORT     CLOUDY    56  49  77 E3        30.13R
BARKSDALE AFB  CLOUDY    55  47  76 CALM      30.14R
DTN SHREVEPORT CLOUDY    56  47  71 E3        30.13R

$$

LAZ014-016-231200-
NORTHEAST LOUISIANA

CITY           SKY/WX    TMP DP  RH WIND       PRES   REMARKS
MONROE         MOCLDY    48  45  89 NE6       30.15S
TALLULAH       CLEAR     46  45  96 CALM      30.14S

$$




USA.gov is the U.S. government's official web portal to all federal, state and local government web resources and services.